Location: Arpaise
(41.0333°N, 14.7333°E)
Time: 22:05:48
(UTC+00:00)

Cosmos 846 Rocket - Pass Details

Date: 25 January 2021
Orbit: 948 x 991 km, 82.9° (Epoch: 06 March)

Event Time Altitude Azimuth Distance (km) Brightness Sun altitude
Rises 03:29:32 0° 10° (N) 3,630 8.6 -31.7°
Reaches altitude 10° 03:33:25 10° 34° (NE) 2,678 8.2 -31.0°
Maximum altitude 03:36:36 14° 66° (ENE) 2,364 8.2 -30.4°
Drops below altitude 10° 03:39:47 10° 98° (E) 2,671 8.7 -29.8°
Sets 03:43:36 0° 122° (ESE) 3,615 9.3 -29.0°
